| time (UTC) | temp F | wind direction | speed knots | gust knots | rain 1hr in | rain 24hr in | rain mn in | humidity % | barometer mb |
| 20260505041327 | 60 | 55 | 1.7 | 3.5 | 0.00 | 0.00 | 0.00 | 58 | 1017.5 |
| 20260505032949 | 62 | 87 | 1.7 | 2.6 | 0.00 | 0.00 | 0.00 | 54 | 1017.3 |
| 20260505025949 | 63 | 96 | 0.9 | 3.5 | 0.00 | 0.00 | 0.00 | 52 | 1017.3 |
| 20260505022949 | 64 | 273 | 1.7 | 3.5 | 0.00 | 0.00 | 0.00 | 50 | 1017.1 |
| 20260505015948 | 65 | 201 | 1.7 | 5.2 | 0.00 | 0.00 | 0.00 | 50 | 1017.0 |
| 20260505012949 | 66 | 142 | 1.7 | 3.5 | 0.00 | 0.00 | 0.00 | 49 | 1016.6 |
| 20260505005948 | 67 | 284 | 3.5 | 5.2 | 0.00 | 0.00 | 0.00 | 47 | 1016.3 |
| 20260505002949 | 69 | 294 | 1.7 | 5.2 | 0.00 | 0.00 | 0.00 | 46 | 1015.8 |
| 20260504235948 | 70 | 236 | 1.7 | 9.6 | 0.00 | 0.00 | 0.00 | 43 | 1015.6 |
| 20260504232949 | 72 | 48 | 2.6 | 11.3 | 0.00 | 0.00 | 0.00 | 41 | 1015.8 |
| 20260504225948 | 73 | 277 | 7.0 | 11.3 | 0.00 | 0.00 | 0.00 | 39 | 1015.4 |
| 20260504224324 | 74 | 165 | 2.6 | 10.4 | 0.00 | 0.00 | 0.00 | 38 | 1015.2 |
| 20260504215948 | 75 | 191 | 1.7 | 10.4 | 0.00 | 0.00 | 0.00 | 35 | 1015.4 |
| 20260504212949 | 75 | 271 | 3.5 | 14.8 | 0.00 | 0.00 | 0.00 | 32 | 1015.3 |
| 20260504205949 | 75 | 256 | 2.6 | 11.3 | 0.00 | 0.00 | 0.00 | 31 | 1015.4 |
| 20260504202949 | 75 | 9 | 1.7 | 10.4 | 0.00 | 0.00 | 0.00 | 31 | 1015.9 |
| 20260504195951 | 76 | 182 | 1.7 | 8.7 | 0.00 | 0.00 | 0.00 | 32 | 1016.3 |
| 20260504192949 | 76 | 208 | 1.7 | 7.8 | 0.00 | 0.00 | 0.00 | 32 | 1016.3 |
| 20260504185949 | 76 | 174 | 2.6 | 7.8 | 0.00 | 0.00 | 0.00 | 34 | 1016.9 |
| 20260504182949 | 75 | 28 | 3.5 | 5.2 | 0.00 | 0.00 | 0.00 | 35 | 1017.2 |
| 20260504175949 | 73 | 33 | 3.5 | 8.7 | 0.00 | 0.00 | 0.00 | 37 | 1017.6 |
| 20260504174332 | 72 | 42 | 4.3 | 7.8 | 0.00 | 0.00 | 0.00 | 38 | 1017.6 |
| 20260504042949 | 48 | 80 | 0.9 | 3.5 | 0.00 | 0.00 | 0.00 | 65 | 1019.5 |